Find Starlink 32577

NORAD ID: 62044 Int'l Des: 2024-216 Owner: SPXS Country: US Constellation: starlink operational
LEOCIRCULAR

現在のビュー

3D地球を読み込み中...

About Starlink 32577

Starlink 32577 (NORAD 62044) is a starlink constellation satellite (v2 mini) launched Nov 21, 2024 by SPXS of US. It operates in LEO, CIRCULAR orbit with a mass of 730.00 kg.

Starlink 32577について

説明を読み込み中...

次回通過

Passes for default location (London). Set your location on the main map for personalized predictions.

高度履歴

Loading altitude history...

軌道要素

1 62044U 24216N 26173.30788125 .00020949 00000-0 76859-3 0 9996
2 62044 42.9998 32.5905 0001120 273.3052 86.7672 15.27582348 89805
Epoch: Jun 22, 2026 • Age: 32 hours

現在のステータス

高度 486.1 km
速度 7.62 km/s
衛星直下点 -16.53°S, 76.65°E
打ち上げ日 Nov 21, 2024
運用期間 1.5 years
タイプ internet

技術仕様

分類 Payload
質量 730.00 kg
乾燥質量 700.00 kg
総質量 730.00 kg
長さ 0.30 m
直径 4.10 m
スパン 29.00 m
形状 Box + pan
製造者 SPXS
バスタイプ Starlink V2M
フェーズステータス In Orbit
所有者/国 SPXS/US

Most Searched